Weather Roundup
Issued by NWS

Home | Current Version | Previous Version | Text Only | Print | Product List | Glossary On
Versions: 1 2 3 4 5 6 7 8 9 10 11 12 13 14 15 16 17 18 19 20 21 22 23 24 25 26 27 28 29 30 31 32 33 34 35 36 37 38 39 40 41 42 43 44 45 46 47 48 49 50
000
NZUS93 KARX 291459
HRRWXR

CURRENT HOURLY OBSERVATIONS ACROSS
MUCH OF THE UPPER MISSISSIPPI VALLEY
NATIONAL WEATHER SERVICE LA CROSSE WI
1000 AM CDT WED MAR 29 2017


...SOUTHEAST MINNESOTA...


CITY           SKY/WX    TMP DP  RH WIND       PRES   REMARKS
ROCHESTER      CLOUDY    41  36  82 SE12      30.23R
ROCHESTER/MAYO FAIR      43  34  70 E8        30.24R
WINONA         CLOUDY    41  34  75 SE7       30.27S
AUSTIN         CLOUDY    43  36  75 SE9       30.21R
ALBERT LEA     CLOUDY    43  34  70 E12       30.20S
DODGE CENTER   CLOUDY    43  36  75 E10       30.22R
PRESTON        CLOUDY    40  34  79 E7        30.23S
OWATONNA       CLOUDY    45  36  70 E9        30.22R
FARIBAULT      CLOUDY    45  36  70 E6        30.24R
$$

...ELSEWHERE IN MINNESOTA...


CITY           SKY/WX    TMP DP  RH WIND       PRES   REMARKS
MINNEAPOLIS    CLOUDY    49  33  54 SE8       30.24S
INTNL FALLS    CLOUDY    37  26  64 SE9       30.26F WCI  30
DULUTH         CLOUDY    35  29  78 E15G24    30.30R WCI  25
RED WING       CLOUDY    45  34  65 CALM      30.24S
REDWOOD FALLS  CLOUDY    47  36  65 VRB6      30.20R
MANKATO        CLOUDY    46  35  65 E13       30.22R
WORTHINGTON    LGT RAIN  43  40  89 E7        30.16F
FAIRMONT       CLOUDY    44  38  79 SE12      30.19S
$$

...SOUTHWEST WISCONSIN...


CITY           SKY/WX    TMP DP  RH WIND       PRES   REMARKS
LA CROSSE      CLOUDY    44  34  67 E7        30.26S
PRAIRIE DU CHI CLOUDY    41  35  80 E6        30.23F
BOSCOBEL       CLOUDY    42  37  82 NE7       30.25F
LONE ROCK      NOT AVBL
PLATTEVILLE    PTSUNNY   40  38  93 E12       30.22F WCI  33
FORT MC COY    CLOUDY    40  34  77 E7        30.29R
MAUSTON-NEW LI CLOUDY    39  33  81 SE5       30.28R
VIROQUA        PTSUNNY   39  35  86 CALM      30.25R
WIS DELLS      CLOUDY    37  33  87 NE3       30.28R
$$

...ELSEWHERE IN WISCONSIN...


CITY           SKY/WX    TMP DP  RH WIND       PRES   REMARKS
MILWAUKEE      CLOUDY    42  38  85 NE9       30.30R
MADISON        CLOUDY    39  35  86 E7        30.27R WCI  34
GREEN BAY      PTSUNNY   38  35  89 NE12      30.33S WCI  30
EAU CLAIRE     NOT AVBL
BLACK RVR FLS  FAIR      40  32  70 NE5       30.28R
MEDFORD        PTSUNNY   38  28  66 E6        30.27S WCI  33
WAUSAU         CLOUDY    39  28  64 E6        30.29R WCI  35
WIS RAPIDS     PTSUNNY   43  30  60 E12       30.30R
MARSHFIELD     PTSUNNY   40  29  64 E12       30.28R WCI  33
RICE LAKE      CLOUDY    42  30  61 CALM      30.29R
$$

...NORTHEAST IOWA...


CITY           SKY/WX    TMP DP  RH WIND       PRES   REMARKS
WATERLOO       CLOUDY    42  37  82 E16       30.15F
DUBUQUE        CLOUDY    42  36  79 E15       30.19F
DECORAH        CLOUDY    41  37  87 E9        30.21S
MASON CITY     CLOUDY    41  36  82 NE13      30.19S
CHARLES CITY   CLOUDY    41  39  93 E13       30.19S
OELWEIN        CLOUDY    41  41 100 E14       30.17S
$$

...ELSEWHERE IN IOWA...


CITY           SKY/WX    TMP DP  RH WIND       PRES   REMARKS
DES MOINES     LGT RAIN  42  40  92 E12G20    30.07R FOG
IOWA CITY      LGT RAIN  43  41  93 E12G23    30.11F FOG
FORT DODGE     CLOUDY    43  36  75 E14       30.12S
MARSHALLTOWN   LGT RAIN  41  40  96 E16G22    30.10F FOG
CEDAR RAPIDS   LGT RAIN  40  40 100 E17       30.11F FOG     WCI  31
$$

...NORTHERN ILLINOIS...


CITY           SKY/WX    TMP DP  RH WIND       PRES   REMARKS
CHICAGO-OHARE  CLOUDY    44  35  70 NE12      30.24R
CHICAGO-MIDWAY CLOUDY    45  36  70 NE8       30.25R
MOLINE         CLOUDY    43  39  86 E15       30.18F FOG
ROCKFORD       CLOUDY    42  35  76 E8        30.25S
PEORIA         CLOUDY    47  44  90 E13       30.15S
$$

NOTE: "FAIR" INDICATES FEW OR NO CLOUDS BELOW 12,000 FEET WITH NO
SIGNIFICANT WEATHER AND/OR OBSTRUCTIONS TO VISIBILITY. WIND
SPEEDS ARE IN MILES-PER-HOUR.




USA.gov is the U.S. government's official web portal to all federal, state and local government web resources and services.